Location: Bailleul
(50.3375°N, 2.8513°E)
Time: 17:30:50
(UTC+00:00)

NOAA 16 DEB - Pass Details

Date: 06 February 2022
Orbit: 838 x 864 km, 98.7° (Epoch: 15 May)

Event Time Altitude Azimuth Distance (km) Brightness Sun altitude
Exits shadow 18:31:17 22° 113° (ESE) 1,762 ? -16.4°
Maximum altitude 18:34:04 36° 63° (ENE) 1,310 ? -16.8°
Drops below altitude 10° 18:39:00 10° 359° (N) 2,469 ? -17.6°
Sets 18:41:27 0° 351° (N) 3,382 ? -18.0°
